This demonstration page uses our WeatherBlox Daily Observations layout. Learn more.

Hourly Observations for May 14, 2015

Temp ( °F °C ) Dew Point ( °F °C ) Humidity (%) Winds ( mph kmh ) Pressure ( in mb ) Visibility ( mi km ) Precip ( " mm )
12:15 am 00:15 Cloudy with Light Rain 53 11.5 51 10.8 96 96 ESE 8 13 30 1016 10 16.0934 0.02 0.508
12:35 am 00:35 Cloudy with Light Rain 53 11.5 51 10.8 96 96 ESE 8 13 29.97 1015 7 11.26538 0.03 0.762
12:55 am 00:55 Cloudy with Rain 53 11.6 52 11 96 96 ESE 8 13 29.97 1015 7 11.26538 0.05 1.27
1:15 am 01:15 Cloudy with Drizzle 53 11.7 52 11 96 96 SE 8 13 29.97 1015 5 8.0467 0.01 0.254
1:35 am 01:35 Cloudy with Drizzle 53 11.7 52 11 96 96 SE 8 13 29.97 1015 4 6.43736 0.01 0.254
1:55 am 01:55 Cloudy with Light Rain 53 11.8 52 11.1 96 96 SSE 10 17 29.97 1015 4 6.43736 0.01 0.254
2:15 am 02:15 Cloudy with Mist and Fog 53 11.8 52 11.1 96 96 SE 7 11 29.91 1013 4 6.43736 0 0
2:35 am 02:35 Cloudy with Mist and Fog 53 11.8 52 11.1 96 96 SE 9 15 29.91 1013 5 8.0467 0 0
2:55 am 02:55 Cloudy with Mist and Fog 53 11.8 52 11.1 96 96 SE 9 15 29.91 1013 4 6.43736 0 0
3:15 am 03:15 Cloudy 53 11.8 52 11.1 96 96 SSE 7 11 29.91 1013 7 11.26538 0 0
3:35 am 03:35 Cloudy with Mist and Fog 53 11.8 52 11.1 96 96 SSE 6 9 29.88 1012 5 8.0467 0 0
3:55 am 03:55 Cloudy with Mist and Fog 53 11.8 52 11.1 96 96 SSE 5 7 29.88 1012 4 6.43736 0 0
4:15 am 04:15 Cloudy with Mist and Fog 53 11.8 52 11.1 96 96 S 7 11 29.88 1012 4 6.43736 0 0
4:35 am 04:35 Cloudy with Mist and Fog 53 11.8 52 11.1 96 96 S 6 9 29.88 1012 3 4.82802 0 0
4:55 am 04:55 Cloudy with Mist and Fog 53 11.8 52 11.1 96 96 S 5 7 29.88 1012 3 4.82802 0 0
5:15 am 05:15 Cloudy with Mist and Fog 53 11.8 52 11.2 96 96 S 5 7 29.88 1012 2.5 4.02335 0 0
5:35 am 05:35 Cloudy with Mist and Fog 53 11.7 52 11.1 96 96 S 5 7 29.88 1012 4 6.43736 0 0
5:55 am 05:55 Cloudy 53 11.7 52 11.1 96 96 S 5 7 29.88 1012 7 11.26538 0 0
6:15 am 06:15 Cloudy 53 11.7 52 11.1 96 96 S 3 6 29.88 1012 7 11.26538 0 0
6:35 am 06:35 Cloudy with Mist and Fog 53 11.7 52 11.1 96 96 Calm 29.88 1012 4 6.43736 0 0
6:55 am 06:55 Cloudy 53 11.8 52 11.2 96 96 SSW 3 6 29.88 1012 7 11.26538 0 0
7:15 am 07:15 Cloudy 54 12 52 11.2 95 95 SW 3 6 29.88 1012 10 16.0934 0 0
7:35 am 07:35 Cloudy 54 12 52 11.2 95 95 SW 5 7 29.88 1012 7 11.26538 0 0
7:55 am 07:55 Cloudy 54 12.2 53 11.5 96 96 SW 6 9 29.91 1013 10 16.0934 0 0
8:15 am 08:15 Cloudy 54 12.2 53 11.5 96 96 WSW 3 6 29.91 1013 7 11.26538 0 0
8:35 am 08:35 Cloudy 55 12.6 53 11.8 95 95 WSW 3 6 29.88 1012 10 16.0934 0 0
8:55 am 08:55 Cloudy 55 13 53 11.4 90 90 W 5 7 29.88 1012 10 16.0934 0.01 0.254
9:15 am 09:15 Cloudy 55 13 53 11.5 91 91 WSW 5 7 29.91 1013 10 16.0934 0 0
9:35 am 09:35 Cloudy 56 13.1 53 11.5 90 90 W 5 7 29.88 1012 10 16.0934 0 0
9:55 am 09:55 Cloudy 57 13.7 53 11.5 87 87 WNW 3 6 29.88 1012 10 16.0934 0 0
10:15 am 10:15 Cloudy 57 13.7 53 11.8 88 88 W 5 7 29.91 1013 10 16.0934 0 0
10:35 am 10:35 Cloudy 57 14 54 12 88 88 W 5 7 29.91 1013 10 16.0934 0 0
10:55 am 10:55 Cloudy 59 15 54 12.4 85 85 W 5 7 29.91 1013 10 16.0934 0 0
11:15 am 11:15 Cloudy 59 15.2 54 12.2 82 82 W 5 7 29.91 1013 10 16.0934 0 0
11:35 am 11:35 Cloudy 60 15.4 54 12.3 82 82 W 7 11 29.91 1013 10 16.0934 0 0
11:55 am 11:55 Cloudy 60 15.6 54 12.4 81 81 WSW 6 9 29.88 1012 10 16.0934 0 0
12:15 pm 12:15 Cloudy 61 16 55 12.5 80 80 WSW 5 7 29.88 1012 10 16.0934 0 0
12:35 pm 12:35 Cloudy 62 16.5 55 12.7 78 78 SW 7 11 29.88 1012 10 16.0934 0 0
12:55 pm 12:55 Cloudy 62 16.5 55 12.7 78 78 SW 8 13 29.88 1012 10 16.0934 0 0
1:15 pm 13:15 Cloudy 62 16.9 55 12.8 77 77 WSW 7 11 29.88 1012 10 16.0934 0 0
1:35 pm 13:35 Cloudy 64 17.7 55 13 74 74 SW 6 9 29.85 1011 10 16.0934 0 0
1:55 pm 13:55 Mostly Cloudy 65 18.4 56 13.1 71 71 WSW 8 13 29.85 1011 10 16.0934 0 0
2:15 pm 14:15 Cloudy 65 18.5 55 13 71 71 W 7 11 29.83 1010 10 16.0934 0 0
2:35 pm 14:35 Mostly Cloudy 67 19.4 56 13.5 69 69 W 9 15 29.83 1010 10 16.0934 0 0
2:55 pm 14:55 Mostly Cloudy 67 19.6 56 13.2 67 67 W 5 7 29.83 1010 10 16.0934 0 0
3:15 pm 15:15 Mostly Cloudy 68 20 56 13.2 65 65 W 5 7 29.83 1010 10 16.0934 0 0
3:35 pm 15:35 Partly Cloudy 69 20.7 56 13.6 64 64 W 8 13 29.83 1010 10 16.0934 0 0
3:55 pm 15:55 Partly Cloudy 71 21.4 56 13.5 61 61 WSW 3 6 29.83 1010 10 16.0934 0 0
4:15 pm 16:15 Sunny 72 22 56 13.6 59 59 W 10 17 29.83 1010 10 16.0934 0 0
4:35 pm 16:35 Sunny 72 22.2 56 13.1 56 56 WSW 5 7 29.83 1010 10 16.0934 0 0
4:55 pm 16:55 Partly Cloudy 73 22.8 55 13 54 54 WSW 6 9 29.77 1008 10 16.0934 0 0
5:15 pm 17:15 Sunny 73 23 56 13.1 54 54 W 9 15 29.77 1008 10 16.0934 0 0
5:35 pm 17:35 Sunny 74 23.1 55 12.9 53 53 Calm 29.77 1008 10 16.0934 0 0
5:55 pm 17:55 Sunny 73 22.9 55 12.9 53 53 SW 7 11 29.77 1008 10 16.0934 0 0
6:15 pm 18:15 Sunny 73 22.5 56 13.4 57 57 SW 6 9 29.77 1008 10 16.0934 0 0
6:35 pm 18:35 Sunny 74 23.2 55 13 53 53 SSW 5 7 29.77 1008 10 16.0934 0 0
6:55 pm 18:55 Sunny 74 23.3 55 12.8 52 52 SSW 8 13 29.77 1008 10 16.0934 0 0
7:15 pm 19:15 Sunny 73 23 55 12.7 52 52 S 6 9 29.77 1008 10 16.0934 0 0
7:35 pm 19:35 Sunny 73 22.7 56 13.3 55 55 S 7 11 29.77 1008 10 16.0934 0 0
7:55 pm 19:55 Sunny 72 22.1 56 13.5 58 58 S 7 11 29.77 1008 10 16.0934 0 0
8:15 pm 20:15 Sunny 70 21.3 57 13.9 63 63 S 6 9 29.8 1009 10 16.0934 0 0
8:35 pm 20:35 Sunny 69 20.4 57 14 67 67 S 6 9 29.8 1009 10 16.0934 0 0
8:55 pm 20:55 Clear 67 19.6 56 13.5 68 68 S 7 11 29.8 1009 10 16.0934 0 0
9:15 pm 21:15 Clear 66 19.1 56 13.5 70 70 SSE 9 15 29.8 1009 10 16.0934 0 0
9:35 pm 21:35 Clear 65 18.5 57 14.1 76 76 SSE 8 13 29.8 1009 10 16.0934 0 0
9:55 pm 21:55 Clear 64 17.8 58 14.2 80 80 S 8 13 29.83 1010 10 16.0934 0 0
10:15 pm 22:15 Clear 64 17.5 57 14.1 81 81 SSE 6 9 29.85 1011 10 16.0934 0 0
10:35 pm 22:35 Clear 62 16.5 57 13.7 84 84 SE 7 11 29.85 1011 10 16.0934 0 0
10:55 pm 22:55 Clear 62 16.5 57 14 85 85 SSE 7 11 29.85 1011 10 16.0934 0 0
11:15 pm 23:15 Clear 62 16.5 57 14 85 85 SSE 7 11 29.85 1011 10 16.0934 0 0
11:35 pm 23:35 Clear 63 17.1 58 14.2 83 83 S 8 13 29.85 1011 10 16.0934 0 0
11:55 pm 23:55 Clear 63 17.1 58 14.3 84 84 SSE 7 11 29.85 1011 10 16.0934 0 0

Powered by AerisWeather